This demonstration page uses our WeatherBlox Daily Observations layout. Learn more.

Left ArrowRight Arrow

39.92423, -83.80882

Hourly Observations for April 17, 2020

Temp ( °F °C ) Dew Point ( °F °C ) Humidity (%) Winds ( mph kmh ) Pressure ( in mb ) Visibility ( mi km ) Precip ( " mm )
12:56 am 00:56 Mostly Clear 40 4.4 28 -2.2 63 63 W 3 6 30.31 1026 10 16.0934 0 0
1:56 am 01:56 Mostly Cloudy 37 2.8 30 -1.1 76 76 Calm 30.29 1026 10 16.0934 0 0
2:56 am 02:56 Cloudy 39 3.9 29 -1.7 67 67 SSE 5 7 30.27 1025 10 16.0934 0 0
3:56 am 03:56 Cloudy 38 3.3 32 0 79 79 E 7 11 30.25 1025 10 16.0934 0 0
4:56 am 04:56 Cloudy with Light Rain 38 3.3 30 -1.1 73 73 E 9 15 30.23 1024 10 16.0934 0.001 0.001
5:56 am 05:56 Cloudy with Light Rain 37 2.8 31 -0.6 79 79 E 10 17 30.21 1023 10 16.0934 0.001 0.001
6:56 am 06:56 Mostly Cloudy 37 2.8 29 -1.7 73 73 E 15 24 30.16 1021 10 16.0934 0.001 0.001
7:56 am 07:56 Cloudy 38 3.3 29 -1.7 70 70 ESE 12 19 30.18 1022 10 16.0934 0 0
8:56 am 08:56 Cloudy 39 3.9 27 -2.8 62 62 ESE 10 17 30.17 1022 10 16.0934 0 0
9:56 am 09:56 Cloudy 40 4.4 28 -2.2 63 63 ESE 15 24 30.11 1020 10 16.0934 0 0
10:56 am 10:56 Cloudy with Light Rain 42 5.6 29 -1.7 60 60 SE 12 19 30.09 1019 10 16.0934 0.001 0.001
11:56 am 11:56 Cloudy with Light Rain 41 5 33 0.6 73 73 SE 10 17 30.04 1017 10 16.0934 0.001 0.001
12:56 pm 12:56 Cloudy with Light Rain 41 5 38 3.3 89 89 SE 7 11 30.01 1016 10 16.0934 0.02 0.508
1:56 pm 13:56 Cloudy with Light Rain 44 6.7 41 5 89 89 S 6 9 29.96 1015 10 16.0934 0.001 0.001
2:14 pm 14:14 Cloudy with Light Rain 45 7 43 6 93 93 S 7 11 29.95 1014 6 9.65604 0.001 0.001
2:56 pm 14:56 Cloudy with Rain 45 7.2 45 7.2 100 100 SSW 8 13 29.92 1013 6 9.65604 0 0
3:21 pm 15:21 Cloudy with Light Rain 45 7 45 7 100 100 SW 12 19 29.92 1013 7 11.26538 0 0
3:34 pm 15:34 Cloudy with Light Rain 46 8 46 8 100 100 SW 15 24 29.91 1013 6 9.65604 0 0
3:56 pm 15:56 Cloudy with Light Rain 46 7.8 46 7.8 100 100 SW 13 20 29.9 1013 5 8.0467 0 0
4:56 pm 16:56 Cloudy with Light Rain 47 8.3 47 8.3 100 100 WSW 15 24 29.89 1012 6 9.65604 0.001 0.001
5:15 pm 17:15 Cloudy with Rain 46 8 46 8 100 100 WSW 12 19 29.89 1012 6 9.65604 0.001 0.001
5:56 pm 17:56 Cloudy with Rain 47 8.3 47 8.3 100 100 WSW 10 17 29.89 1012 5 8.0467 0 0
6:56 pm 18:56 Cloudy with Light Rain 48 8.9 48 8.9 100 100 WSW 10 17 29.89 1012 10 16.0934 0 0
7:56 pm 19:56 Cloudy 47 8.3 47 8.3 100 100 WSW 13 20 29.87 1012 10 16.0934 0 0
8:17 pm 20:17 Cloudy with Rain 46 8 46 8 100 100 W 12 19 29.87 1011 2.5 4.02335 0 0
8:24 pm 20:24 Cloudy with Light Rain 46 8 46 8 100 100 WNW 9 15 29.88 1012 5 8.0467 0 0
8:38 pm 20:38 Cloudy with Light Rain 45 7 45 7 100 100 NW 14 22 29.89 1012 3 4.82802 0 0
8:56 pm 20:56 Cloudy with Light Rain 44 6.7 44 6.7 100 100 NNW 12 19 29.89 1012 4 6.43736 0 0
9:39 pm 21:39 Cloudy with Light Rain 43 6 43 6 100 100 NW 13 20 29.93 1013 4 6.43736 0 0
9:56 pm 21:56 Cloudy with Light Rain 41 5 41 5 100 100 NW 16 26 29.93 1013 2.5 4.02335 0 0
10:31 pm 22:31 Cloudy with Light Rain 39 4 39 4 100 100 NW 14 22 29.94 1014 6 9.65604 0 0
10:56 pm 22:56 Cloudy 39 3.9 39 3.9 100 100 NW 18 30 29.93 1014 10 16.0934 0 0
11:56 pm 23:56 Cloudy 36 2.2 36 2.2 100 100 NW 17 28 29.95 1014 7 11.26538 0 0

Powered by AerisWeather